Location: Moscow
(55.7500°N, 37.5830°E)
Time: 05:27:16
(UTC+03:00)

N. Korean satellite - Pass Details

Date: 26 October 2021
Orbit: 447 x 495 km, 97.3° (Epoch: 28 November)

Event Time Altitude Azimuth Distance (km) Brightness Sun altitude
Rises 04:25:54 0° 31° (NNE) 2,600 10.9 -25.3°
Reaches altitude 10° 04:29:51 10° 74° (ENE) 1,702 10.4 -24.8°
Maximum altitude 04:30:29 10° 84° (E) 1,677 10.3 -24.7°
Drops below altitude 10° 04:31:08 10° 94° (E) 1,697 10.3 -24.6°
Sets 04:35:02 0° 138° (SE) 2,560 10.6 -24.1°
